Location: *
(37.9500°N, 27.3666°E)
Time: 13:22:42
(UTC+00:00)

H-2A R/B - Pass Details

Date: 24 October 2021
Orbit: 528 x 650 km, 98.3° (Epoch: 03 December)

Event Time Altitude Azimuth Distance (km) Brightness Sun altitude
Rises 16:39:07 0° 158° (SSE) 2,902 5.8 -16.0°
Reaches altitude 10° 16:41:21 10° 154° (SSE) 1,983 4.9 -16.5°
Maximum altitude 16:45:36 61° 75° (ENE) 689 2.4 -17.3°
Drops below altitude 10° 16:49:44 10° 355° (N) 1,924 5.1 -18.1°
Sets 16:51:52 0° 352° (N) 2,808 6.0 -18.6°
